Louisville, KY

7:19 AM EDT on May 26, 2017 (GMT -0400)
Louisville International-Standiford

Weather History for KSDF - October, 2013

Change the Weather History Date:

Wednesday, October 9, 2013

  Actual Average Record
Temperature  
Mean Temperature 63 °F 62 °F  
Max Temperature 77 °F 72 °F 89 °F (2010)
Min Temperature 49 °F 51 °F 31 °F (2000)
Degree Days  
Heating Degree Days 2 5  
Month to date heating degree days 17 39  
Since 1 July heating degree days 23 69  
Cooling Degree Days 0 2  
Month to date cooling degree days 47 22  
Year to date cooling degree days 1622 1589  
Growing Degree Days 12 (Base 50)    
Moisture  
Dew Point 49 °F    
Average Humidity 63    
Maximum Humidity 83    
Minimum Humidity 43    
Precipitation  
Precipitation 0.00 in 0.10 in 2.71 in (1999)
Month to date precipitation 7.57 0.95  
Year to date precipitation 42.08 35.22  
Snow  
Snow 0.00 in 0.00 in 0.00 in ()
Month to date snowfall 0.0 0.0  
Since 1 July snowfall 0.0 0.0  
Since 1 September snowfall 0.0 0.0  
Snow Depth 0.00 in    
Sea Level Pressure  
Sea Level Pressure 30.17 in    
Wind  
Wind Speed 2 mph (NNE)    
Max Wind Speed 8 mph    
Max Gust Speed 13 mph    
Visibility 10 miles    
Events      
T = Trace of Precipitation, MM = Missing Value Source: NWS Daily Summary

Daily Weather History Graph

Daily Weather History Graph

Search for Another Location

Airport or City:

Trip Planner

Search our weather history database for the weather conditions in past years. The results will help you decide how hot, cold, wet, or windy it might be!

Date:

Astronomy

Oct. 09, 2013 Rise Set
Actual Time 7:46 AM EDT 7:13 PM EDT
Civil Twilight 7:19 AM EDT 7:39 PM EDT
Nautical Twilight 6:49 AM EDT 8:10 PM EDT
Astronomical Twilight 6:18 AM EDT 8:40 PM EDT
Moon 12:37 PM EDT (10/9) 10:50 PM EDT (10/9)
Length of Visible Light 12h 20m
Length of Day
11h 27m
Waxing Crescent, 25% of the Moon is Illuminated
Oct 9
Waxing Crescent
Oct 11
First Quarter
Oct 18
Full
Oct 26
Last Quarter
Nov 3
New

Hourly Weather History & Observations

Time (EDT) Temp. Dew Point Humidity Pressure Visibility Wind Dir Wind Speed Gust Speed Precip Events Conditions
12:56 AM 55.9 °F 46.0 °F 69% 30.18 in 10.0 mi ENE 3.5 mph - N/A   Clear
1:56 AM 55.9 °F 45.0 °F 67% 30.17 in 10.0 mi Calm Calm - N/A   Clear
2:56 AM 52.0 °F 46.0 °F 80% 30.17 in 10.0 mi NNW 4.6 mph - N/A   Clear
3:56 AM 52.0 °F 45.0 °F 77% 30.16 in 10.0 mi Calm Calm - N/A   Clear
4:56 AM 54.0 °F 45.0 °F 72% 30.16 in 10.0 mi Calm Calm - N/A   Clear
5:56 AM 52.0 °F 46.0 °F 80% 30.17 in 10.0 mi NNE 3.5 mph - N/A   Clear
6:56 AM 51.1 °F 45.0 °F 80% 30.17 in 10.0 mi NNE 3.5 mph - N/A   Clear
7:56 AM 50.0 °F 45.0 °F 83% 30.19 in 10.0 mi NNE 3.5 mph - N/A   Clear
8:56 AM 54.0 °F 46.9 °F 77% 30.21 in 10.0 mi NNE 4.6 mph - N/A   Clear
9:56 AM 57.0 °F 46.9 °F 69% 30.22 in 10.0 mi East 3.5 mph - N/A   Clear
10:56 AM 61.0 °F 48.9 °F 64% 30.22 in 10.0 mi Calm Calm - N/A   Clear
11:56 AM 64.9 °F 50.0 °F 58% 30.22 in 10.0 mi Calm Calm - N/A   Partly Cloudy
12:56 PM 69.1 °F 50.0 °F 51% 30.20 in 10.0 mi Calm Calm - N/A   Partly Cloudy
1:56 PM 73.9 °F 51.1 °F 45% 30.18 in 10.0 mi Calm Calm - N/A   Partly Cloudy
2:56 PM 75.0 °F 52.0 °F 44% 30.15 in 8.0 mi SW 3.5 mph - N/A   Partly Cloudy
3:56 PM 75.9 °F 52.0 °F 43% 30.14 in 10.0 mi NW 3.5 mph - N/A   Partly Cloudy
4:56 PM 75.9 °F 53.1 °F 45% 30.14 in 10.0 mi NW 5.8 mph - N/A   Partly Cloudy
5:56 PM 75.0 °F 54.0 °F 48% 30.14 in 10.0 mi NNW 3.5 mph - N/A   Partly Cloudy
6:56 PM 72.0 °F 53.1 °F 51% 30.14 in 10.0 mi NNE 3.5 mph - N/A   Partly Cloudy
7:56 PM 69.1 °F 53.1 °F 57% 30.14 in 10.0 mi NE 5.8 mph - N/A   Partly Cloudy
8:56 PM 66.9 °F 54.0 °F 63% 30.14 in 10.0 mi ENE 3.5 mph - N/A   Clear
9:56 PM 66.0 °F 53.1 °F 63% 30.15 in 10.0 mi Calm Calm - N/A   Clear
10:56 PM 64.0 °F 52.0 °F 65% 30.15 in 10.0 mi Calm Calm - N/A   Clear
11:56 PM 61.0 °F 51.1 °F 70% 30.14 in 10.0 mi Calm Calm - N/A   Clear